This is the latest recevied weather packets stored in our database for station/object N7CEE-2. If no packets are shown the sender has not sent any weather packets the latest 10 day(s).
| Time | Temp. | Humidity | Pressure | Rain* | Wind** | Luminosity | Snow |
|---|---|---|---|---|---|---|---|
| 1777669090 | 28.89° C | 26% | 1012.8 hPa | 0 mm | - | 895 W/m² | - |
| 1777668788 | 29.44° C | 26% | 1012.9 hPa | 0 mm | - | 906 W/m² | - |
| 1777668484 | 28.89° C | 26% | 1012.8 hPa | 0 mm | - | 913 W/m² | - |
| 1777668181 | 28.89° C | 26% | 1013 hPa | 0 mm | - | 922 W/m² | - |
| 1777667877 | 29.44° C | 27% | 1013 hPa | 0 mm | - | 927 W/m² | - |
| 1777667575 | 29.44° C | 26% | 1012.9 hPa | 0 mm | - | 934 W/m² | - |
| 1777667271 | 28.89° C | 28% | 1013.1 hPa | 0 mm | - | 940 W/m² | - |
| 1777666968 | 28.33° C | 27% | 1013.1 hPa | 0 mm | - | 949 W/m² | - |
| 1777666665 | 28.89° C | 27% | 1013.3 hPa | 0 mm | - | 952 W/m² | - |
| 1777666362 | 28.33° C | 28% | 1013.3 hPa | 0 mm | - | 958 W/m² | - |
| 1777666059 | 28.89° C | 28% | 1013.3 hPa | 0 mm | - | 963 W/m² | - |
| 1777665756 | 28.89° C | 28% | 1013.3 hPa | 0 mm | - | 965 W/m² | - |
| 1777665453 | 28.33° C | 28% | 1013.2 hPa | 0 mm | - | 971 W/m² | - |
| 1777665149 | 28.89° C | 28% | 1013.4 hPa | 0 mm | - | 974 W/m² | - |
| 1777664845 | 28.89° C | 28% | 1013.3 hPa | 0 mm | - | 976 W/m² | - |
| 1777664541 | 28.89° C | 29% | 1013.4 hPa | 0 mm | - | 978 W/m² | - |
| 1777664238 | 28.89° C | 28% | 1013.5 hPa | 0 mm | - | 978 W/m² | - |
| 1777663936 | 27.78° C | 28% | 1013.6 hPa | 0 mm | - | 978 W/m² | - |
| 1777663634 | 28.33° C | 28% | 1013.6 hPa | 0 mm | - | 977 W/m² | - |
| 1777663330 | 27.78° C | 28% | 1013.8 hPa | 0 mm | - | 977 W/m² | - |
| 1777663028 | 28.33° C | 27% | 1013.8 hPa | 0 mm | - | 978 W/m² | - |
| 1777662725 | 28.33° C | 29% | 1013.9 hPa | 0 mm | - | 979 W/m² | - |
| 1777662421 | 27.78° C | 30% | 1013.9 hPa | 0 mm | - | 977 W/m² | - |
| 1777662116 | 27.78° C | 30% | 1014.1 hPa | 0 mm | - | 975 W/m² | - |
| 1777661813 | 27.22° C | 31% | 1014.1 hPa | 0 mm | - | 972 W/m² | - |
* Rain latest hour (hover to see other rain measurements)
** Current wind speed in m/s (hover to see current wind gust speed)